Waarnemingen

Advertentie
Mijn weer
Koksijde, België (6400): temperatuur & dauwpunt: 12.10.2018 14:00:00 - 18.10.2018 14:00:00 (CEST)Koksijde, België (6400): windsnelheid & windstoten: 12.10.2018 14:00:00 - 18.10.2018 14:00:00 (CEST)Koksijde, België (6400): windrichting: 12.10.2018 14:00:00 - 18.10.2018 14:00:00 (CEST)Koksijde, België (6400): luchtdruk: 12.10.2018 14:00:00 - 18.10.2018 14:00:00 (CEST)Koksijde, België (6400): zicht: 12.10.2018 14:00:00 - 18.10.2018 14:00:00 (CEST)
Datum & Tijd tt [°C] td [°C] ff [km/u] ff [kn] fx [km/u] fx [kn] dd ppp [hPa] vv [km]
18.10.2018 14:00:00 15,6 10,2 25 14 - - NO 1025,7 20
18.10.2018 13:00:00 15,3 10,9 25 14 36 19 NO 1025,7 18
18.10.2018 12:00:00 15,6 11,2 22 12 32 18 NO 1025,7 18
18.10.2018 11:00:00 14,3 12,2 11 6 - - NO 1025,5 12
18.10.2018 10:00:00 13,5 12,0 14 8 25 14 ONO 1025,2 8
18.10.2018 09:00:00 13,5 12,5 18 10 25 14 ONO 1024,7 7
18.10.2018 08:00:00 13,8 13,0 11 6 - - ONO 1024,2 6
18.10.2018 07:00:00 14,1 13,3 14 8 25 14 NO 1023,8 7
18.10.2018 06:00:00 14,0 12,7 11 6 18 10 NNO 1023,7 10
18.10.2018 05:00:00 13,6 12,2 7 4 - - NNO 1023,5 18
18.10.2018 04:00:00 14,0 12,3 11 6 22 12 N 1023,5 18
18.10.2018 03:00:00 11,9 10,6 5 3 11 6 N 1023,5 10
18.10.2018 02:00:00 11,6 10,4 4 2 - - - 1023,5 10
18.10.2018 01:00:00 11,1 9,6 7 4 7 4 NO 1023,2 10
18.10.2018 00:00:00 11,8 10,0 4 2 11 6 N 1023,0 10
17.10.2018 23:00:00 13,3 11,2 7 4 - - N 1022,7 13
17.10.2018 22:00:00 11,6 10,1 4 2 7 4 - 1022,3 7
17.10.2018 21:00:00 12,8 10,9 7 4 7 4 N 1021,7 10
17.10.2018 20:00:00 13,1 10,6 4 2 - - N 1021,1 15
17.10.2018 19:00:00 14,3 11,1 7 4 14 8 N 1020,7 15
17.10.2018 18:00:00 15,5 11,3 11 6 18 10 N 1020,2 15
17.10.2018 17:00:00 16,7 10,4 11 6 - - N 1020,1 15
17.10.2018 16:00:00 17,4 10,9 7 4 14 8 NNW 1019,8 20
17.10.2018 15:00:00 17,6 11,4 7 4 14 8 N 1019,7 8
17.10.2018 14:00:00 17,4 11,4 7 4 - - N 1020,0 8
17.10.2018 13:00:00 17,0 12,0 4 2 11 6 N 1020,1 8
17.10.2018 12:00:00 14,1 12,9 4 2 7 4 N 1020,2 6
17.10.2018 11:00:00 12,0 11,7 7 4 - - ZW 1020,2 1,2
17.10.2018 10:00:00 10,6 10,3 7 4 11 6 WZW 1019,8 0,2
17.10.2018 09:00:00 10,5 10,1 7 4 11 6 ZW 1019,5 0,6
17.10.2018 08:00:00 10,3 9,8 4 2 - - N 1019,2 0,7
17.10.2018 07:00:00 10,6 9,7 4 2 4 2 N 1018,7 2,0
17.10.2018 06:00:00 11,0 10,3 4 2 7 4 WZW 1018,7 6
17.10.2018 05:00:00 11,0 10,2 4 2 - - N 1018,3 3,2
17.10.2018 04:00:00 11,1 10,2 4 2 4 2 N 1018,5 3,2
17.10.2018 03:00:00 11,8 10,9 4 2 7 4 N 1018,3 3,1
17.10.2018 02:00:00 12,6 11,6 4 2 - - N 1018,6 3,3
17.10.2018 01:00:00 12,4 11,3 4 2 7 4 N 1018,6 4,0
17.10.2018 00:00:00 12,8 11,4 4 2 11 6 N 1018,6 4,9
16.10.2018 23:00:00 14,1 12,5 7 4 - - W 1018,7 5
16.10.2018 22:00:00 15,4 14,1 11 6 18 10 W 1018,5 4,8
16.10.2018 21:00:00 15,3 12,3 7 4 11 6 W 1018,1 12
16.10.2018 20:00:00 15,3 11,5 4 2 - - N 1017,7 12
16.10.2018 19:00:00 16,6 11,3 11 6 18 10 NNW 1017,6 13
16.10.2018 18:00:00 22,2 10,7 7 4 18 10 Z 1017,1 19
16.10.2018 17:00:00 23,5 10,8 14 8 - - Z 1017,1 19
16.10.2018 16:00:00 23,7 9,2 18 10 22 12 ZZW 1017,2 20
16.10.2018 15:00:00 23,4 10,4 14 8 22 12 Z 1017,5 20
16.10.2018 14:00:00 22,8 10,7 11 6 - - ZZW 1017,7 20
16.10.2018 13:00:00 21,7 10,2 14 8 18 10 ZZW 1017,8 20
16.10.2018 12:00:00 20,0 11,5 11 6 18 10 ZZW 1017,7 20
16.10.2018 11:00:00 17,3 11,6 5 3 - - Z 1017,5 8
16.10.2018 10:00:00 14,2 12,3 4 2 4 2 N 1017,6 8
16.10.2018 09:00:00 13,7 11,7 7 4 11 6 N 1017,6 8
16.10.2018 08:00:00 9,6 8,4 4 2 - - N 1016,7 7
16.10.2018 07:00:00 9,6 8,7 4 2 4 2 N 1016,3 6
16.10.2018 06:00:00 9,8 9,2 4 2 4 2 N 1016,1 6
16.10.2018 05:00:00 9,6 9,0 4 2 - - N 1015,8 3,2
16.10.2018 04:00:00 10,2 9,7 4 2 7 4 N 1015,7 0,1
16.10.2018 03:00:00 11,8 11,1 4 2 7 4 N 1016,0 0,1
16.10.2018 02:00:00 12,1 11,2 4 2 - - N 1015,7 0,3
16.10.2018 01:00:00 12,1 11,4 7 4 7 4 NNO 1015,6 2,4
16.10.2018 00:00:00 12,8 12,1 5 3 4 2 NO 1015,3 3,1
15.10.2018 23:00:00 13,1 12,0 4 2 - - - 1015,0 4,8
15.10.2018 22:00:00 13,7 12,4 4 2 7 4 N 1014,5 7
15.10.2018 21:00:00 14,1 12,6 4 2 4 2 N 1014,2 15
15.10.2018 20:00:00 15,3 13,1 4 2 - - N 1014,0 15
15.10.2018 19:00:00 16,8 14,1 7 4 11 6 NO 1013,5 20
15.10.2018 18:00:00 18,9 14,2 11 6 14 8 NNW 1013,0 20
15.10.2018 17:00:00 20,0 14,5 11 6 - - NNW 1012,0 20
15.10.2018 16:00:00 20,2 14,2 14 8 25 14 W 1011,7 20
15.10.2018 15:00:00 22,3 13,2 14 8 29 16 ZZW 1011,2 20
15.10.2018 14:00:00 21,6 13,0 22 12 - - ZZW 1011,1 20
15.10.2018 13:00:00 21,9 14,6 18 10 25 14 ZZW 1010,8 20
15.10.2018 12:00:00 19,2 13,2 14 8 25 14 ZZW 1010,6 15
15.10.2018 11:00:00 19,2 13,6 14 8 - - Z 1010,0 14
15.10.2018 10:00:00 16,7 12,5 11 6 18 10 Z 1009,6 17
15.10.2018 09:00:00 15,5 11,4 14 8 18 10 Z 1008,8 14
15.10.2018 08:00:00 15,0 11,0 7 4 - - Z 1008,0 14
15.10.2018 07:00:00 14,6 10,5 7 4 18 10 ZZO 1007,6 14
15.10.2018 06:00:00 15,1 10,6 11 6 14 8 ZZO 1007,3 14
15.10.2018 05:00:00 14,0 10,9 4 2 - - N 1007,2 14
15.10.2018 04:00:00 13,0 10,6 5 3 11 6 O 1007,2 7
15.10.2018 03:00:00 13,6 11,2 7 4 11 6 OZO 1007,2 8
15.10.2018 02:00:00 13,6 11,5 7 4 - - O 1007,1 9
15.10.2018 01:00:00 14,5 12,9 4 2 14 8 N 1006,8 8
15.10.2018 00:00:00 15,8 14,1 11 6 22 12 NNO 1007,1 8
14.10.2018 23:00:00 17,3 14,1 11 6 - - NNO 1006,8 12
14.10.2018 22:00:00 18,8 12,9 7 4 18 10 WNW 1007,0 13
14.10.2018 21:00:00 17,4 13,2 4 2 4 2 N 1006,6 15
14.10.2018 20:00:00 17,6 12,9 4 2 - - N 1006,3 13
14.10.2018 19:00:00 20,1 13,3 7 4 14 8 Z 1005,8 15
14.10.2018 18:00:00 21,7 13,8 11 6 32 18 ZZW 1005,7 17
14.10.2018 17:00:00 22,5 13,3 22 12 - - Z 1005,6 20
14.10.2018 16:00:00 22,9 13,1 22 12 36 19 Z 1005,2 19
14.10.2018 15:00:00 22,4 13,3 25 14 40 21 Z 1004,7 19
14.10.2018 14:00:00 21,7 12,9 25 14 - - Z 1005,3 20
14.10.2018 13:00:00 20,7 12,7 25 14 40 21 Z 1005,7 18
14.10.2018 12:00:00 19,7 13,0 22 12 32 18 Z 1005,8 14
14.10.2018 11:00:00 18,3 12,9 22 12 - - Z 1006,2 18
14.10.2018 10:00:00 16,5 12,5 22 12 29 16 ZZO 1006,2 14
14.10.2018 09:00:00 16,0 12,4 14 8 22 12 ZZO 1006,5 19
14.10.2018 08:00:00 15,6 12,6 11 6 - - ZZO 1006,7 15
14.10.2018 07:00:00 16,1 13,0 11 6 18 10 ZO 1007,0 13
14.10.2018 06:00:00 16,1 13,4 7 4 14 8 ZO 1007,7 12
14.10.2018 05:00:00 15,1 13,2 7 4 - - OZO 1008,5 10
14.10.2018 04:00:00 16,7 13,6 4 2 14 8 N 1008,7 14
14.10.2018 03:00:00 17,6 13,9 11 6 18 10 ZZO 1009,2 16
14.10.2018 02:00:00 17,6 14,1 7 4 - - ZZO 1009,6 17
14.10.2018 01:00:00 18,3 14,4 14 8 18 10 ZZO 1010,3 16
14.10.2018 00:00:00 18,7 14,7 14 8 18 10 Z 1011,0 16
13.10.2018 23:00:00 19,1 15,0 11 6 - - Z 1011,2 16
13.10.2018 22:00:00 20,0 15,2 18 10 25 14 ZZO 1011,5 17
13.10.2018 21:00:00 20,5 15,5 18 10 25 14 ZZO 1011,6 18
13.10.2018 20:00:00 20,7 16,0 14 8 - - ZO 1011,6 19
13.10.2018 19:00:00 21,8 16,3 18 10 32 18 ZZO 1011,7 18
13.10.2018 18:00:00 22,7 16,8 22 12 32 18 ZZO 1012,0 13
13.10.2018 17:00:00 23,3 16,9 25 14 - - ZZO 1012,3 16
13.10.2018 16:00:00 24,6 16,6 25 14 47 25 Z 1012,8 19
13.10.2018 15:00:00 24,6 16,7 29 16 43 23 Z 1013,5 20
13.10.2018 14:00:00 24,2 17,0 29 16 - - Z 1014,3 16
13.10.2018 13:00:00 22,7 16,4 22 12 40 21 Z 1015,2 19
13.10.2018 12:00:00 21,6 15,9 22 12 36 19 Z 1015,6 18
13.10.2018 11:00:00 19,7 15,1 22 12 - - Z 1016,0 18
13.10.2018 10:00:00 18,1 14,4 18 10 29 16 Z 1016,2 17
13.10.2018 09:00:00 17,1 14,0 14 8 25 14 ZZO 1016,1 18
13.10.2018 08:00:00 17,3 14,1 4 2 - - N 1016,2 18
13.10.2018 07:00:00 16,8 14,1 18 10 22 12 Z 1016,3 12
13.10.2018 06:00:00 16,5 13,8 14 8 22 12 Z 1016,6 12
13.10.2018 05:00:00 16,7 13,9 11 6 - - ZZO 1016,6 12
13.10.2018 04:00:00 18,2 14,1 11 6 18 10 Z 1017,1 19
13.10.2018 03:00:00 18,3 14,2 14 8 29 16 Z 1017,2 19
13.10.2018 02:00:00 18,2 14,2 14 8 - - Z 1016,7 16
13.10.2018 01:00:00 18,8 14,4 18 10 29 16 Z 1016,6 19
13.10.2018 00:00:00 19,6 14,7 22 12 29 16 Z 1017,1 20
12.10.2018 23:00:00 19,3 15,0 18 10 - - Z 1017,2 19
12.10.2018 22:00:00 19,7 15,4 22 12 29 16 Z 1017,1 18
12.10.2018 21:00:00 19,7 15,7 18 10 25 14 Z 1016,7 17
12.10.2018 20:00:00 20,2 15,8 18 10 - - ZZO 1016,2 14
12.10.2018 19:00:00 20,6 15,9 22 12 32 18 Z 1016,0 19
12.10.2018 18:00:00 20,7 16,0 22 12 43 23 Z 1015,7 15
12.10.2018 17:00:00 21,1 16,0 29 16 - - Z 1015,8 20
12.10.2018 16:00:00 20,7 14,6 25 14 36 19 Z 1016,0 20
12.10.2018 15:00:00 20,8 11,6 22 12 36 19 Z 1015,8 20
12.10.2018 14:00:00 20,6 13,0 22 12 - - Z 1016,2 20

tt = temperatuur
td = dauwpunt
ff = windsnelheid
fx = windstoten
dd = windrichting
ppp = luchtdruk
vv = zicht

Weerstations in de omgeving